Wind_Speed
15 13 10 8 6 5 3 3 1 2 3 5 7 8 8 8 9 9 10 11 11 11 11 10 11 11 11 11 11 11 12 11 11 11 10 10 9 9 8 7 7 6 5 5
17 13 11 11 10 8 5 4 3 1 1 3 4 5 6 6 7 7 8 9 10 10 10 9 10 10 10 10 11 11 11 10 11 11 10 10 10 10 9 8 7 6 6 5
16 12 13 13 12 11 8 5 4 4 4 5 5 5 4 4 5 5 6 7 8 8 8 8 8 8 9 9 10 10 10 9 10 10 10 10 10 9 9 8 7 5 5 4
18 16 16 15 13 13 11 7 7 8 9 9 8 7 6 6 4 3 4 5 6 6 6 6 6 7 8 8 8 8 8 8 9 9 9 9 9 8 8 7 6 5 4 4
20 18 18 18 16 15 12 10 11 11 12 12 11 11 8 8 4 3 3 3 3 4 4 5 5 5 6 6 6 6 7 7 7 8 8 7 7 7 7 7 6 6 5 4
22 21 21 19 19 17 14 14 15 15 15 14 12 13 10 7 5 3 3 2 2 3 3 3 3 3 4 4 5 5 5 6 6 6 6 6 7 7 6 6 6 6 6 5
24 23 22 21 20 19 17 17 17 17 17 16 13 14 10 8 8 6 4 3 3 2 3 2 1 2 2 3 3 4 4 4 5 5 4 4 5 5 5 5 5 6 6 6
25 24 22 22 21 20 18 18 20 18 17 15 14 14 11 10 11 8 6 4 4 4 3 3 2 1 1 1 2 2 3 4 4 5 4 4 4 4 5 6 7 7 7 7
26 23 22 22 21 20 20 19 19 19 18 16 15 14 13 12 11 9 8 6 6 5 5 5 4 4 3 2 1 1 2 2 3 4 4 4 4 5 5 7 7 8 8 8
26 25 25 24 24 23 22 20 21 22 20 18 16 15 15 13 12 10 9 8 7 7 7 8 7 7 6 4 3 2 2 2 3 4 4 5 5 6 6 7 8 8 9 9
28 28 26 26 27 25 23 22 23 23 22 22 20 18 16 14 12 11 11 10 9 9 9 10 10 9 9 8 6 4 4 4 4 4 5 6 6 7 7 8 8 9 9 10
30 30 29 27 26 25 23 23 23 24 22 22 22 21 18 16 14 14 13 12 11 11 11 11 11 10 10 9 9 8 7 5 5 6 6 7 8 8 9 9 9 10 10 11
32 32 31 30 28 28 27 26 25 25 24 24 24 23 20 19 16 15 15 15 14 13 13 13 12 11 10 10 9 9 9 8 8 8 9 9 9 10 10 11 11 12 12 13
35 35 34 34 31 30 30 28 27 27 28 27 26 24 23 22 20 18 18 17 17 17 16 15 14 13 12 12 11 11 11 11 11 11 11 11 11 12 13 13 13 14 15 16
36 37 36 35 33 32 31 31 30 29 29 29 27 26 25 23 22 21 20 19 20 19 19 17 17 16 15 14 13 14 13 13 13 13 13 13 13 14 15 15 15 16 17 18
37 38 38 37 37 35 34 33 32 31 31 31 29 28 26 25 23 23 22 22 21 21 20 19 19 19 18 17 15 14 15 15 15 14 15 16 16 16 16 16 17 18 19 19
38 39 39 39 38 37 37 35 34 34 33 33 31 30 28 27 25 24 23 22 21 21 21 21 20 20 19 18 16 17 16 17 17 17 17 18 18 19 19 19 20 20 21 21
39 39 39 39 39 40 37 36 35 35 35 35 35 33 31 30 28 26 26 26 24 24 23 22 23 22 21 21 20 19 19 18 19 20 20 20 20 21 22 22 22 22 23 24
40 40 40 40 41 40 38 37 36 36 36 35 36 36 33 32 30 29 28 27 28 28 27 26 24 25 25 24 23 22 22 22 22 22 21 21 22 22 23 23 24 25 25 27
38 40 41 42 42 42 40 38 38 38 38 36 36 36 35 34 33 31 30 30 29 29 28 27 27 27 28 27 27 26 26 26 25 24 24 25 26 26 26 25 26 27 28 28
39 39 40 41 42 43 41 40 40 41 41 39 38 37 37 36 35 33 33 32 31 31 30 30 30 30 30 30 31 30 29 28 28 27 27 28 29 29 29 29 29 30 31 31
38 39 40 41 42 42 41 41 41 42 42 41 40 39 38 37 36 36 36 35 34 33 32 33 34 34 34 34 34 33 33 32 31 31 31 32 32 32 32 32 32 32 32 33
38 39 40 41 40 40 40 40 40 41 41 41 41 40 39 38 38 38 38 38 37 35 35 35 36 36 36 36 36 36 35 34 33 33 33 33 34 34 33 33 34 34 33 33
38 40 41 41 40 40 40 39 39 39 40 39 39 39 39 39 39 39 38 38 38 37 38 37 37 37 37 38 38 37 35 35 34 34 34 35 35 34 35 35 35 35 34 34
38 39 40 41 41 41 40 39 39 39 39 39 39 38 39 40 40 40 39 38 38 38 37 38 38 38 38 39 38 38 37 36 35 36 36 35 35 36 36 36 36 35 35 34
35 37 38 38 38 38 38 39 39 39 40 40 39 38 39 40 41 40 40 39 39 39 38 38 39 39 39 39 39 39 39 38 37 37 37 36 37 37 36 36 36 35 35 35
Wind_Direction
193 189 187 186 170 174 153 141 97 56 24 20 30 29 32 34 36 42 51 53 54 57 58 63 68 69 70 69 71 73 76 80 81 78 75 73 75 75 76 80 81 84 81 77
197 190 185 189 188 196 193 186 204 240 285 325 350 359 8 23 23 43 50 55 58 59 61 65 70 69 69 69 69 71 73 75 76 75 76 73 72 71 70 71 76 76 75 71
201 192 195 200 202 210 217 219 237 257 267 260 292 314 324 347 14 34 49 51 54 61 64 65 65 68 69 70 69 70 73 75 79 76 75 73 71 68 64 64 69 70 65 57
207 203 205 205 207 213 219 229 243 244 248 265 281 294 305 311 339 17 40 39 45 48 58 67 67 66 66 69 71 72 72 70 75 71 73 70 67 63 59 57 60 56 48 43
212 210 213 215 212 219 221 226 238 240 241 251 264 282 293 286 299 343 360 15 31 33 42 57 63 62 61 64 67 67 68 68 65 56 62 63 58 57 54 49 45 36 29 22
216 213 216 218 215 219 225 228 232 236 239 246 255 269 274 269 279 301 317 341 5 15 5 29 52 57 61 60 60 60 60 57 52 46 55 62 54 49 48 46 39 25 15 6
217 216 217 218 215 217 223 225 228 231 236 240 248 259 260 263 268 274 284 298 316 327 319 328 27 49 58 60 58 51 45 40 31 30 47 46 38 34 34 28 18 10 2 359
220 217 218 221 222 222 225 229 230 234 235 240 250 254 256 266 266 271 274 283 282 272 275 291 302 292 331 27 35 36 30 24 23 33 42 40 31 23 18 12 5 358 357 353
223 220 217 221 224 225 227 231 234 240 242 246 252 253 255 258 265 265 263 265 276 279 275 273 268 263 262 263 291 345 353 2 3 1 12 18 7 0 360 357 356 353 351 345
225 222 215 218 221 223 227 231 233 237 241 244 250 258 257 258 260 264 264 259 272 277 281 274 273 264 256 251 252 273 302 314 325 333 339 341 343 344 340 340 341 342 341 339
226 225 217 216 220 223 227 232 232 233 237 244 248 253 255 254 249 255 261 260 261 262 270 281 283 270 261 258 262 254 264 280 296 308 316 321 322 323 325 327 326 327 327 329
225 226 222 220 221 223 227 230 232 232 234 240 246 249 251 254 253 255 255 258 260 261 269 273 271 268 264 262 264 258 262 271 282 292 301 306 309 313 315 317 318 317 317 318
223 226 225 221 219 221 225 227 230 234 235 240 245 248 248 252 254 252 256 263 258 261 269 269 264 261 265 266 267 264 262 270 279 286 291 294 298 303 305 306 309 311 312 313
223 226 227 224 221 222 225 227 230 234 236 238 242 248 251 255 258 256 259 260 259 263 269 267 266 263 263 263 264 266 264 267 274 279 284 290 294 295 296 297 301 303 306 311
225 227 227 226 224 225 226 228 230 233 238 240 240 243 247 252 257 257 258 261 257 261 268 268 268 265 265 263 264 265 264 267 272 275 282 286 288 291 295 297 298 300 302 306
227 228 228 226 226 227 228 229 230 232 236 239 241 242 247 251 254 255 255 258 259 262 266 265 263 262 262 261 263 267 268 270 272 273 279 282 285 288 290 291 293 295 298 301
230 231 230 228 226 228 229 230 231 233 236 238 239 240 243 248 252 253 254 257 260 263 266 264 263 265 264 263 265 267 274 274 271 271 274 279 282 284 285 287 288 290 294 295
231 232 233 232 228 229 230 229 231 233 236 238 241 241 244 248 251 253 253 256 260 265 268 267 266 269 270 272 272 273 275 273 272 277 276 276 279 281 283 286 289 291 293 295
231 232 233 233 231 231 230 229 231 234 236 239 240 243 246 248 251 254 258 259 260 264 266 265 267 271 271 274 273 273 274 275 276 276 277 277 280 283 286 288 289 290 291 292
230 231 233 233 233 233 232 232 233 235 237 238 241 243 246 249 252 255 258 260 263 265 266 266 266 268 270 272 273 273 273 274 275 275 276 280 282 285 288 287 288 290 292 293
231 231 232 234 235 236 234 234 235 236 237 238 241 244 247 249 252 255 257 259 262 266 267 267 266 265 268 271 274 275 275 276 275 275 277 280 283 285 287 286 287 290 291 291
232 232 232 234 236 237 237 236 236 238 239 240 242 243 246 248 251 254 257 259 260 262 263 264 263 264 266 269 271 272 273 274 275 275 276 279 282 283 284 285 287 288 290 291
233 234 235 236 237 238 239 240 239 239 241 242 243 244 246 249 251 252 255 258 259 259 260 262 262 263 264 267 269 270 270 272 273 274 275 278 281 282 284 284 286 287 289 291
235 237 238 239 239 239 240 241 241 242 243 244 245 245 245 247 249 250 253 256 258 259 259 260 262 263 265 267 268 269 271 271 271 273 274 277 279 281 283 285 286 287 288 289
235 237 240 241 241 240 240 241 242 244 245 246 247 246 246 247 249 252 253 255 258 260 260 261 263 264 265 267 267 269 271 270 272 274 275 277 277 279 281 283 284 285 287 288
235 237 238 240 241 241 240 241 242 243 243 245 247 248 248 249 250 251 252 254 257 258 259 260 262 264 266 266 268 270 271 272 272 274 274 276 278 279 280 282 283 284 286 288
Height
5908 5910 5912 5913 5914 5915 5915 5916 5916 5917 5917 5916 5916 5916 5916 5916 5915 5915 5913 5912 5910 5909 5908 5906 5905 5905 5904 5904 5903 5902 5902 5901 5900 5900 5900 5899 5899 5899 5898 5898 5897 5897 5897 5898
5906 5908 5911 5911 5912 5913 5914 5915 5916 5916 5917 5916 5916 5916 5916 5916 5916 5915 5914 5913 5912 5911 5910 5909 5907 5907 5906 5906 5905 5904 5904 5903 5902 5902 5901 5901 5900 5900 5899 5899 5899 5898 5898 5898
5904 5907 5908 5909 5910 5912 5913 5914 5915 5915 5915 5916 5916 5916 5916 5916 5916 5916 5915 5913 5913 5912 5911 5910 5909 5908 5908 5907 5907 5906 5905 5904 5904 5903 5903 5902 5902 5901 5901 5900 5900 5899 5899 5898
5900 5903 5904 5906 5908 5909 5911 5913 5913 5914 5914 5914 5915 5915 5916 5915 5915 5915 5914 5914 5913 5913 5912 5911 5910 5910 5909 5909 5908 5907 5907 5905 5904 5904 5904 5903 5902 5902 5901 5900 5900 5900 5899 5898
5897 5899 5901 5903 5906 5907 5909 5911 5912 5912 5913 5914 5914 5914 5915 5913 5913 5913 5913 5913 5913 5912 5912 5911 5911 5910 5910 5910 5909 5908 5908 5907 5906 5905 5905 5904 5903 5902 5902 5901 5900 5900 5899 5898
5893 5895 5897 5900 5903 5905 5907 5908 5909 5910 5911 5911 5912 5912 5912 5912 5912 5912 5912 5912 5912 5911 5912 5911 5911 5911 5910 5910 5909 5909 5908 5907 5906 5905 5905 5904 5904 5903 5902 5901 5900 5900 5899 5898
5887 5890 5893 5896 5898 5901 5903 5905 5906 5906 5907 5907 5909 5908 5909 5910 5910 5910 5910 5910 5910 5910 5911 5911 5911 5910 5910 5910 5909 5909 5908 5908 5907 5905 5904 5903 5903 5903 5902 5901 5900 5899 5898 5897
5882 5886 5889 5891 5894 5896 5898 5900 5902 5903 5904 5905 5905 5904 5907 5907 5908 5908 5908 5908 5908 5908 5909 5910 5910 5910 5910 5909 5909 5909 5908 5907 5906 5904 5903 5903 5903 5902 5901 5900 5899 5898 5897 5895
5877 5881 5885 5887 5890 5893 5894 5895 5898 5900 5900 5901 5902 5902 5903 5904 5905 5905 5905 5906 5906 5906 5907 5908 5908 5908 5908 5908 5908 5908 5907 5906 5905 5905 5904 5903 5903 5902 5901 5900 5899 5897 5896 5894
5871 5875 5879 5882 5885 5887 5890 5892 5894 5895 5896 5896 5898 5898 5899 5900 5902 5902 5902 5902 5903 5903 5905 5906 5906 5906 5906 5907 5906 5906 5906 5906 5905 5904 5903 5903 5902 5901 5900 5899 5898 5896 5894 5893
5865 5868 5873 5875 5877 5881 5885 5887 5888 5890 5891 5892 5893 5896 5896 5897 5897 5898 5899 5899 5899 5900 5901 5902 5903 5903 5904 5904 5904 5904 5904 5904 5903 5903 5902 5901 5901 5900 5898 5897 5896 5894 5892 5891
5857 5861 5865 5869 5873 5876 5879 5881 5882 5884 5886 5887 5889 5893 5892 5892 5893 5894 5895 5896 5896 5897 5898 5899 5899 5900 5901 5901 5901 5901 5901 5901 5901 5901 5900 5899 5898 5897 5896 5895 5893 5892 5890 5888
5851 5854 5858 5863 5868 5870 5871 5874 5876 5879 5881 5882 5883 5888 5888 5888 5889 5890 5892 5892 5892 5893 5894 5895 5896 5896 5897 5897 5898 5899 5898 5899 5899 5898 5898 5897 5895 5894 5893 5892 5890 5889 5887 5885
5844 5847 5851 5855 5859 5862 5865 5868 5870 5872 5874 5876 5879 5881 5883 5883 5884 5886 5888 5888 5889 5889 5890 5891 5891 5892 5892 5893 5894 5895 5895 5896 5895 5895 5894 5893 5892 5890 5889 5888 5887 5885 5883 5881
5836 5840 5843 5848 5853 5856 5859 5862 5865 5866 5868 5870 5872 5875 5877 5879 5880 5882 5883 5884 5885 5885 5886 5886 5887 5887 5888 5888 5889 5890 5891 5891 5891 5891 5890 5889 5888 5886 5885 5884 5882 5881 5879 5878
5828 5832 5836 5841 5845 5849 5852 5856 5858 5860 5862 5864 5866 5869 5871 5873 5875 5876 5878 5879 5880 5881 5882 5881 5882 5882 5883 5884 5884 5885 5885 5885 5885 5886 5885 5884 5883 5882 5880 5879 5878 5876 5875 5873
5820 5824 5828 5833 5837 5841 5845 5849 5851 5853 5855 5858 5860 5863 5864 5866 5868 5871 5872 5873 5874 5876 5876 5876 5876 5876 5878 5878 5879 5880 5880 5880 5880 5880 5879 5879 5878 5877 5875 5874 5873 5871 5869 5867
5812 5815 5819 5824 5830 5833 5839 5841 5843 5845 5848 5851 5853 5855 5857 5860 5862 5864 5865 5867 5869 5869 5870 5870 5870 5870 5871 5872 5873 5874 5874 5874 5874 5874 5873 5873 5872 5871 5869 5868 5867 5865 5863 5861
5802 5806 5810 5815 5819 5823 5829 5833 5835 5837 5840 5843 5845 5848 5850 5853 5855 5857 5859 5861 5862 5863 5864 5865 5865 5865 5865 5866 5866 5867 5868 5868 5868 5867 5867 5866 5865 5864 5863 5862 5860 5859 5857 5855
5792 5796 5801 5804 5809 5813 5821 5824 5826 5830 5832 5835 5838 5841 5843 5846 5848 5851 5852 5853 5855 5856 5857 5858 5859 5859 5859 5859 5860 5861 5860 5861 5860 5860 5860 5859 5858 5857 5856 5855 5853 5852 5850 5848
5783 5787 5790 5794 5798 5803 5810 5814 5817 5821 5824 5828 5830 5833 5835 5838 5840 5843 5844 5846 5847 5848 5850 5850 5851 5852 5853 5853 5853 5853 5852 5853 5852 5852 5852 5851 5850 5850 5849 5847 5846 5844 5842 5840
5774 5778 5782 5785 5789 5796 5800 5804 5807 5810 5815 5818 5822 5824 5827 5829 5831 5834 5836 5838 5839 5841 5842 5843 5844 5844 5845 5845 5845 5845 5844 5844 5844 5844 5843 5843 5842 5841 5840 5839 5837 5835 5833 5831
5764 5769 5772 5777 5782 5785 5789 5793 5797 5800 5804 5808 5811 5815 5817 5820 5822 5824 5827 5829 5830 5832 5833 5834 5835 5835 5836 5836 5836 5836 5835 5835 5835 5835 5834 5834 5833 5832 5831 5829 5828 5826 5824 5822
5755 5759 5763 5767 5771 5775 5779 5783 5786 5790 5794 5798 5801 5804 5807 5809 5811 5814 5816 5818 5820 5822 5823 5824 5825 5826 5826 5827 5827 5827 5827 5827 5826 5825 5825 5824 5823 5822 5821 5819 5818 5817 5815 5813
5746 5750 5753 5757 5762 5765 5769 5773 5777 5780 5783 5786 5789 5792 5795 5798 5800 5803 5805 5807 5809 5811 5813 5814 5815 5815 5816 5817 5816 5816 5817 5817 5817 5816 5815 5814 5813 5812 5811 5809 5808 5806 5805 5803
5738 5741 5744 5748 5752 5756 5760 5763 5766 5769 5772 5775 5778 5781 5784 5786 5789 5792 5794 5796 5798 5800 5802 5803 5804 5804 5805 5806 5806 5806 5806 5806 5805 5805 5805 5804 5803 5802 5801 5799 5798 5796 5795 5793